TOM5GX EGBB-LEPA

Flight info

Callsign TOM5GX
Flight time 1h 55m
Altitude 41000
Route CPT UN859 SOPIL DCT BALAN DCT EVPOK DCT NARAK DCT GAI DCT LOMRA DCT ROCAN DCT IBRAP DCT LUKEV DCT LORES
Aircraft B788/H-SADE2FGHIJ1J4J5M1P2RWXY/LB1D1G1

Departure

Time 2026-05-08 05:40
Airport Birmingham Airport (EGBB)

Arrival

Time 2026-05-08 07:36
Airport Palma de Mallorca Airport (LEPA)
Time Latitude Longitude Altitude Speed Heading
2026-05-08 05:22 52.45239 -1.73608 329 ft 0 kts 326°
2026-05-08 05:31 52.45239 -1.73607 324 ft 1 kts 326°
2026-05-08 05:31 52.45221 -1.73587 329 ft 1 kts 326°
2026-05-08 05:31 52.45203 -1.73563 328 ft 4 kts 308°
2026-05-08 05:31 52.45191 -1.73526 328 ft 4 kts 272°
2026-05-08 05:32 52.45196 -1.73488 327 ft 2 kts 236°
2026-05-08 05:32 52.45188 -1.73509 328 ft 1 kts 236°
2026-05-08 05:32 52.45187 -1.73510 326 ft 0 kts 236°
2026-05-08 05:34 52.45180 -1.73528 326 ft 5 kts 236°
2026-05-08 05:35 52.45144 -1.73614 328 ft 11 kts 236°
2026-05-08 05:35 52.45100 -1.73709 327 ft 11 kts 224°
2026-05-08 05:35 52.45049 -1.73807 326 ft 12 kts 238°
2026-05-08 05:35 52.45064 -1.73914 326 ft 10 kts 311°
2026-05-08 05:36 52.45145 -1.74013 325 ft 18 kts 326°
2026-05-08 05:36 52.45254 -1.74132 326 ft 19 kts 326°
2026-05-08 05:36 52.45361 -1.74251 325 ft 15 kts 324°
2026-05-08 05:36 52.45423 -1.74399 327 ft 17 kts 297°
2026-05-08 05:37 52.45481 -1.74566 328 ft 17 kts 310°
2026-05-08 05:37 52.45583 -1.74694 323 ft 20 kts 325°
2026-05-08 05:37 52.45715 -1.74841 317 ft 25 kts 326°
2026-05-08 05:37 52.45865 -1.75009 315 ft 27 kts 326°
2026-05-08 05:38 52.46013 -1.75174 313 ft 24 kts 326°
2026-05-08 05:38 52.46154 -1.75330 312 ft 25 kts 326°
2026-05-08 05:38 52.46302 -1.75494 308 ft 26 kts 326°
2026-05-08 05:38 52.46456 -1.75664 308 ft 27 kts 326°
2026-05-08 05:39 52.46597 -1.75819 315 ft 17 kts 324°
2026-05-08 05:39 52.46624 -1.75932 311 ft 11 kts 257°
2026-05-08 05:39 52.46581 -1.76046 311 ft 12 kts 232°
2026-05-08 05:39 52.46517 -1.76055 313 ft 14 kts 157°
2026-05-08 05:40 52.46328 -1.75846 316 ft 62 kts 146°
2026-05-08 05:40 52.45771 -1.75228 326 ft 129 kts 146°
2026-05-08 05:40 52.44884 -1.74271 637 ft 160 kts 154°
2026-05-08 05:40 52.43948 -1.73348 1585 ft 156 kts 148°
2026-05-08 05:41 52.43026 -1.72282 2341 ft 165 kts 143°
2026-05-08 05:41 52.42101 -1.71169 3188 ft 165 kts 145°
2026-05-08 05:41 52.41106 -1.70119 3775 ft 183 kts 155°
2026-05-08 05:41 52.39776 -1.69550 4186 ft 212 kts 168°
2026-05-08 05:42 52.38274 -1.68967 5008 ft 223 kts 163°
2026-05-08 05:42 52.36880 -1.67835 6030 ft 227 kts 152°
2026-05-08 05:42 52.35450 -1.66689 7013 ft 230 kts 155°
2026-05-08 05:42 52.33941 -1.65745 7947 ft 234 kts 159°
2026-05-08 05:43 52.32412 -1.64713 8851 ft 240 kts 157°
2026-05-08 05:43 52.30857 -1.63652 9780 ft 244 kts 158°
2026-05-08 05:43 52.29253 -1.62593 10702 ft 248 kts 158°
2026-05-08 05:43 52.27571 -1.61488 11096 ft 274 kts 159°
2026-05-08 05:44 52.25753 -1.60292 11774 ft 284 kts 159°
2026-05-08 05:44 52.23880 -1.59211 12558 ft 289 kts 167°
2026-05-08 05:44 52.21927 -1.58254 13289 ft 296 kts 164°
2026-05-08 05:44 52.19959 -1.57204 14118 ft 299 kts 164°
2026-05-08 05:45 52.17960 -1.56180 14896 ft 304 kts 165°
2026-05-08 05:45 52.15857 -1.55136 15062 ft 329 kts 165°
2026-05-08 05:45 52.13577 -1.53995 15087 ft 355 kts 165°
2026-05-08 05:45 52.11188 -1.52780 15696 ft 359 kts 165°
2026-05-08 05:46 52.08791 -1.51565 16307 ft 363 kts 165°
2026-05-08 05:46 52.06365 -1.50350 16895 ft 366 kts 165°
2026-05-08 05:46 52.03918 -1.49125 17462 ft 370 kts 165°
2026-05-08 05:46 52.01455 -1.47888 17999 ft 373 kts 165°
2026-05-08 05:47 51.98966 -1.46638 18531 ft 376 kts 165°
2026-05-08 05:47 51.96458 -1.45382 19046 ft 378 kts 165°
2026-05-08 05:47 51.93931 -1.44119 19548 ft 381 kts 165°
2026-05-08 05:47 51.91385 -1.42847 20005 ft 384 kts 165°
2026-05-08 05:48 51.88819 -1.41567 20466 ft 387 kts 165°
2026-05-08 05:48 51.86237 -1.40279 20898 ft 390 kts 165°
2026-05-08 05:48 51.83635 -1.38985 21298 ft 393 kts 165°
2026-05-08 05:48 51.81009 -1.37680 21674 ft 396 kts 165°
2026-05-08 05:49 51.78374 -1.36367 22069 ft 398 kts 165°
2026-05-08 05:49 51.75713 -1.35050 22453 ft 401 kts 165°
2026-05-08 05:49 51.73041 -1.33730 22799 ft 403 kts 165°
2026-05-08 05:49 51.70350 -1.32397 23150 ft 405 kts 165°
2026-05-08 05:50 51.67647 -1.31060 23481 ft 407 kts 165°
2026-05-08 05:50 51.64930 -1.29720 23804 ft 409 kts 165°
2026-05-08 05:50 51.62199 -1.28375 24108 ft 412 kts 165°
2026-05-08 05:50 51.59454 -1.27024 24401 ft 413 kts 165°
2026-05-08 05:51 51.56697 -1.25668 24686 ft 415 kts 165°
2026-05-08 05:51 51.53929 -1.24309 24966 ft 417 kts 165°
2026-05-08 05:51 51.51156 -1.22949 25235 ft 419 kts 165°
2026-05-08 05:51 51.48393 -1.21411 25493 ft 422 kts 158°
2026-05-08 05:52 51.45727 -1.19421 25728 ft 424 kts 158°
2026-05-08 05:52 51.43041 -1.17455 26008 ft 425 kts 158°
2026-05-08 05:52 51.40345 -1.15482 26261 ft 427 kts 157°
2026-05-08 05:52 51.37641 -1.13490 26521 ft 429 kts 157°
2026-05-08 05:53 51.34928 -1.11492 26777 ft 430 kts 157°
2026-05-08 05:53 51.32202 -1.09493 27032 ft 432 kts 158°
2026-05-08 05:53 51.29466 -1.07493 27284 ft 433 kts 158°
2026-05-08 05:53 51.26735 -1.05494 27673 ft 431 kts 158°
2026-05-08 05:54 51.24005 -1.03497 27886 ft 433 kts 158°
2026-05-08 05:54 51.21267 -1.01506 28129 ft 434 kts 158°
2026-05-08 05:54 51.18515 -0.99503 28357 ft 436 kts 158°
2026-05-08 05:54 51.15746 -0.97487 28591 ft 437 kts 158°
2026-05-08 05:55 51.12982 -0.95477 28827 ft 438 kts 158°
2026-05-08 05:55 51.11140 -0.94141 28995 ft 439 kts 158°
2026-05-08 05:55 51.07450 -0.91469 29284 ft 441 kts 158°
2026-05-08 05:55 51.04652 -0.89444 29505 ft 443 kts 158°
2026-05-08 05:56 51.01844 -0.87416 29720 ft 444 kts 158°
2026-05-08 05:56 50.99027 -0.85383 29944 ft 445 kts 158°
2026-05-08 05:56 50.97156 -0.84033 30088 ft 446 kts 158°
2026-05-08 05:56 50.93368 -0.81306 30381 ft 448 kts 158°
2026-05-08 05:57 50.90523 -0.79262 30587 ft 450 kts 158°
2026-05-08 05:57 50.88635 -0.77907 30728 ft 451 kts 158°
2026-05-08 05:57 50.85784 -0.75819 30919 ft 453 kts 154°
2026-05-08 05:57 50.83090 -0.73188 31098 ft 457 kts 149°
2026-05-08 05:58 50.80414 -0.70469 31334 ft 458 kts 149°
2026-05-08 05:58 50.77734 -0.67738 31529 ft 459 kts 149°
2026-05-08 05:58 50.75044 -0.64997 31728 ft 461 kts 149°
2026-05-08 05:58 50.72343 -0.62256 31922 ft 462 kts 149°
2026-05-08 05:59 50.69631 -0.59510 32131 ft 464 kts 149°
2026-05-08 05:59 50.64141 -0.53948 32241 ft 474 kts 149°
2026-05-08 05:59 50.61362 -0.51144 32458 ft 475 kts 150°
2026-05-08 06:00 50.58574 -0.48339 32647 ft 476 kts 150°
2026-05-08 06:00 50.55776 -0.45525 32839 ft 478 kts 149°
2026-05-08 06:00 50.52976 -0.42705 33024 ft 480 kts 149°
2026-05-08 06:00 50.50154 -0.39871 33217 ft 481 kts 150°
2026-05-08 06:01 50.47334 -0.37047 33386 ft 483 kts 150°
2026-05-08 06:01 50.44499 -0.34210 33586 ft 484 kts 150°
2026-05-08 06:01 50.41664 -0.31375 33849 ft 483 kts 150°
2026-05-08 06:01 50.38833 -0.28547 34101 ft 482 kts 150°
2026-05-08 06:02 50.36002 -0.25727 34339 ft 482 kts 150°
2026-05-08 06:02 50.33170 -0.22910 34563 ft 482 kts 150°
2026-05-08 06:02 50.30336 -0.20094 34791 ft 482 kts 150°
2026-05-08 06:02 50.27539 -0.17317 35039 ft 483 kts 150°
2026-05-08 06:03 50.24703 -0.14507 35273 ft 483 kts 150°
2026-05-08 06:03 50.21826 -0.11660 35491 ft 483 kts 150°
2026-05-08 06:03 50.18986 -0.08853 35734 ft 483 kts 150°
2026-05-08 06:03 50.16144 -0.06049 35965 ft 483 kts 150°
2026-05-08 06:04 50.13301 -0.03248 36191 ft 484 kts 150°
2026-05-08 06:04 50.10426 -0.00687 36415 ft 481 kts 158°
2026-05-08 06:04 50.07245 0.01073 36608 ft 478 kts 168°
2026-05-08 06:04 50.04068 0.02357 36848 ft 477 kts 168°
2026-05-08 06:05 50.00864 0.03623 37213 ft 473 kts 168°
2026-05-08 06:05 49.97631 0.04875 37434 ft 473 kts 168°
2026-05-08 06:05 49.94480 0.06107 37617 ft 474 kts 168°
2026-05-08 06:05 49.91250 0.07385 37824 ft 474 kts 168°
2026-05-08 06:06 49.88050 0.08644 38016 ft 475 kts 168°
2026-05-08 06:06 49.84846 0.09895 38208 ft 475 kts 168°
2026-05-08 06:06 49.81638 0.11146 38415 ft 476 kts 168°
2026-05-08 06:06 49.78427 0.12401 38599 ft 476 kts 168°
2026-05-08 06:07 49.75213 0.13658 38803 ft 477 kts 168°
2026-05-08 06:07 49.71994 0.14911 38987 ft 477 kts 168°
2026-05-08 06:07 49.68772 0.16162 39180 ft 478 kts 168°
2026-05-08 06:07 49.65549 0.17429 39372 ft 478 kts 168°
2026-05-08 06:08 49.62326 0.18749 39562 ft 479 kts 167°
2026-05-08 06:08 49.59104 0.20069 39756 ft 479 kts 168°
2026-05-08 06:08 49.55875 0.21361 39937 ft 480 kts 168°
2026-05-08 06:08 49.52638 0.22648 40133 ft 481 kts 168°
2026-05-08 06:09 49.49402 0.23949 40325 ft 481 kts 168°
2026-05-08 06:09 49.46162 0.25254 40525 ft 482 kts 168°
2026-05-08 06:09 49.42918 0.26552 40695 ft 482 kts 168°
2026-05-08 06:09 49.39713 0.27828 40883 ft 482 kts 168°
2026-05-08 06:10 49.36463 0.29124 41052 ft 483 kts 168°
2026-05-08 06:10 49.29915 0.31736 41038 ft 486 kts 168°
2026-05-08 06:11 49.23427 0.34510 41039 ft 483 kts 167°
2026-05-08 06:11 49.16941 0.37228 41040 ft 483 kts 167°
2026-05-08 06:12 49.10454 0.39952 41037 ft 484 kts 167°
2026-05-08 06:12 49.03963 0.42672 41039 ft 484 kts 167°
2026-05-08 06:13 48.97468 0.45381 41039 ft 484 kts 167°
2026-05-08 06:13 48.91014 0.48071 41039 ft 484 kts 167°
2026-05-08 06:14 48.84512 0.50769 41041 ft 485 kts 167°
2026-05-08 06:14 48.78004 0.53464 41038 ft 485 kts 168°
2026-05-08 06:15 48.71471 0.56001 41041 ft 485 kts 168°
2026-05-08 06:15 48.64933 0.58569 41038 ft 487 kts 168°
2026-05-08 06:16 48.58379 0.61130 41043 ft 486 kts 168°
2026-05-08 06:16 48.51834 0.63677 41041 ft 485 kts 168°
2026-05-08 06:17 48.42079 0.67672 41032 ft 483 kts 167°
2026-05-08 06:17 48.35576 0.70284 41030 ft 484 kts 167°
2026-05-08 06:18 48.29061 0.72932 41036 ft 485 kts 167°
2026-05-08 06:18 48.22527 0.75553 41039 ft 486 kts 168°
2026-05-08 06:19 48.15969 0.78116 41036 ft 488 kts 168°
2026-05-08 06:19 48.09402 0.80705 41036 ft 488 kts 168°
2026-05-08 06:20 48.02849 0.83267 41035 ft 486 kts 168°
2026-05-08 06:20 47.96320 0.85820 41031 ft 485 kts 168°
2026-05-08 06:21 47.89784 0.88365 41017 ft 487 kts 168°
2026-05-08 06:21 47.83215 0.90919 41025 ft 488 kts 168°
2026-05-08 06:22 47.76653 0.93462 41030 ft 488 kts 168°
2026-05-08 06:22 47.70084 0.96002 41023 ft 488 kts 168°
2026-05-08 06:23 47.63517 0.98534 41026 ft 487 kts 168°
2026-05-08 06:23 47.56952 1.01059 41030 ft 487 kts 168°
2026-05-08 06:24 47.50388 1.03577 41021 ft 487 kts 168°
2026-05-08 06:24 47.43816 1.06001 41027 ft 485 kts 174°
2026-05-08 06:25 47.37130 1.06309 41028 ft 481 kts 183°
2026-05-08 06:25 47.30430 1.06152 41015 ft 482 kts 184°
2026-05-08 06:26 47.23731 1.05993 41027 ft 481 kts 184°
2026-05-08 06:26 47.17037 1.05838 41025 ft 481 kts 184°
2026-05-08 06:27 47.10401 1.05681 41014 ft 481 kts 184°
2026-05-08 06:27 47.03716 1.05527 41010 ft 480 kts 184°
2026-05-08 06:28 46.97041 1.05282 41009 ft 479 kts 185°
2026-05-08 06:28 46.90360 1.04963 41011 ft 482 kts 184°
2026-05-08 06:29 46.83646 1.04699 41015 ft 483 kts 185°
2026-05-08 06:29 46.76921 1.04400 41005 ft 483 kts 185°
2026-05-08 06:30 46.70222 1.04123 41001 ft 481 kts 185°
2026-05-08 06:30 46.63542 1.03835 41001 ft 480 kts 185°
2026-05-08 06:31 46.56847 1.03555 41002 ft 482 kts 185°
2026-05-08 06:31 46.50132 1.03866 40998 ft 488 kts 171°
2026-05-08 06:32 46.43500 1.06046 40999 ft 489 kts 170°
2026-05-08 06:32 46.36882 1.08264 40997 ft 487 kts 170°
2026-05-08 06:33 46.30282 1.10461 40999 ft 486 kts 170°
2026-05-08 06:33 46.23698 1.12650 40998 ft 486 kts 170°
2026-05-08 06:34 46.17099 1.14839 41000 ft 487 kts 170°
2026-05-08 06:34 46.10476 1.17029 41000 ft 489 kts 170°
2026-05-08 06:35 46.03850 1.19217 41003 ft 488 kts 170°
2026-05-08 06:35 45.97240 1.21393 40999 ft 487 kts 170°
2026-05-08 06:36 45.90620 1.23566 40999 ft 488 kts 171°
2026-05-08 06:36 45.83988 1.25739 40999 ft 489 kts 171°
2026-05-08 06:37 45.77342 1.27911 40996 ft 490 kts 171°
2026-05-08 06:37 45.70704 1.30075 40997 ft 488 kts 171°
2026-05-08 06:38 45.64095 1.32224 40994 ft 487 kts 171°
2026-05-08 06:38 45.57489 1.34367 40994 ft 487 kts 171°
2026-05-08 06:39 45.50911 1.36496 40993 ft 489 kts 171°
2026-05-08 06:39 45.44271 1.38639 40990 ft 490 kts 171°
2026-05-08 06:40 45.37619 1.40782 40991 ft 490 kts 171°
2026-05-08 06:40 45.30956 1.42923 40990 ft 491 kts 171°
2026-05-08 06:41 45.24301 1.45056 40988 ft 489 kts 171°
2026-05-08 06:41 45.17674 1.47175 40986 ft 488 kts 171°
2026-05-08 06:42 45.11054 1.49287 40972 ft 487 kts 171°
2026-05-08 06:42 45.04441 1.51391 40971 ft 488 kts 171°
2026-05-08 06:43 44.97801 1.53499 40976 ft 490 kts 172°
2026-05-08 06:43 44.92224 1.55266 40977 ft 491 kts 172°
2026-05-08 06:44 44.85551 1.57375 40980 ft 492 kts 172°
2026-05-08 06:44 44.78866 1.59483 40981 ft 492 kts 172°
2026-05-08 06:45 44.72191 1.61583 40980 ft 491 kts 172°
2026-05-08 06:45 44.65524 1.63675 40986 ft 491 kts 172°
2026-05-08 06:46 44.58860 1.65762 40985 ft 491 kts 172°
2026-05-08 06:46 44.52173 1.67851 40984 ft 492 kts 172°
2026-05-08 06:47 44.45487 1.69934 40985 ft 493 kts 172°
2026-05-08 06:47 44.38771 1.72022 40988 ft 494 kts 172°
2026-05-08 06:48 44.32055 1.74106 40990 ft 495 kts 172°
2026-05-08 06:48 44.25325 1.75803 40997 ft 490 kts 176°
2026-05-08 06:49 44.18579 1.77323 40998 ft 492 kts 176°
2026-05-08 06:49 44.11806 1.78804 40988 ft 494 kts 176°
2026-05-08 06:50 44.05033 1.80304 40989 ft 492 kts 176°
2026-05-08 06:50 43.98285 1.81784 40987 ft 490 kts 176°
2026-05-08 06:51 43.91549 1.82781 40987 ft 486 kts 181°
2026-05-08 06:51 43.84795 1.83455 40992 ft 487 kts 181°
2026-05-08 06:52 43.78025 1.84104 40990 ft 487 kts 181°
2026-05-08 06:52 43.71266 1.84763 40992 ft 486 kts 181°
2026-05-08 06:53 43.64518 1.85414 40990 ft 486 kts 181°
2026-05-08 06:53 43.57782 1.86064 40990 ft 484 kts 181°
2026-05-08 06:54 43.51060 1.86710 40990 ft 485 kts 181°
2026-05-08 06:54 43.44371 1.87352 40992 ft 485 kts 181°
2026-05-08 06:55 43.37643 1.87998 40989 ft 484 kts 181°
2026-05-08 06:55 43.30935 1.88639 40988 ft 482 kts 182°
2026-05-08 06:56 43.24254 1.89279 40987 ft 481 kts 182°
2026-05-08 06:56 43.17582 1.89915 40989 ft 481 kts 182°
2026-05-08 06:57 43.10916 1.90551 40988 ft 479 kts 182°
2026-05-08 06:57 43.04268 1.91182 40987 ft 478 kts 182°
2026-05-08 06:58 42.97636 1.91810 40988 ft 478 kts 183°
2026-05-08 06:58 42.90985 1.92440 40991 ft 480 kts 183°
2026-05-08 06:59 42.84326 1.93069 40988 ft 479 kts 183°
2026-05-08 06:59 42.77695 1.93694 40979 ft 477 kts 183°
2026-05-08 07:00 42.71082 1.94315 41003 ft 476 kts 184°
2026-05-08 07:00 42.64484 1.95698 41034 ft 488 kts 172°
2026-05-08 07:01 42.57911 1.98059 41029 ft 489 kts 173°
2026-05-08 07:01 42.51341 2.00427 41011 ft 488 kts 173°
2026-05-08 07:02 42.44776 2.02778 41022 ft 489 kts 173°
2026-05-08 07:02 42.38212 2.05132 41029 ft 487 kts 173°
2026-05-08 07:03 42.31652 2.07468 41022 ft 487 kts 173°
2026-05-08 07:03 42.25108 2.09791 41017 ft 486 kts 173°
2026-05-08 07:04 42.18570 2.12108 41014 ft 486 kts 173°
2026-05-08 07:04 42.12019 2.14424 41024 ft 487 kts 173°
2026-05-08 07:05 42.05460 2.16740 41007 ft 487 kts 174°
2026-05-08 07:05 41.98897 2.19050 41006 ft 488 kts 174°
2026-05-08 07:06 41.92336 2.21355 41011 ft 487 kts 174°
2026-05-08 07:06 41.85764 2.23659 41008 ft 489 kts 174°
2026-05-08 07:07 41.79192 2.25960 41008 ft 488 kts 174°
2026-05-08 07:07 41.72636 2.28249 41007 ft 487 kts 174°
2026-05-08 07:08 41.66080 2.30538 41006 ft 487 kts 174°
2026-05-08 07:08 41.59578 2.32801 41002 ft 486 kts 174°
2026-05-08 07:09 41.53042 2.35072 40999 ft 485 kts 174°
2026-05-08 07:09 41.46495 2.37341 40998 ft 486 kts 174°
2026-05-08 07:10 41.39943 2.39608 41002 ft 486 kts 174°
2026-05-08 07:10 41.33389 2.41871 41000 ft 486 kts 174°
2026-05-08 07:11 41.26834 2.44129 40997 ft 487 kts 174°
2026-05-08 07:11 41.20279 2.46383 41002 ft 486 kts 174°
2026-05-08 07:12 41.13746 2.48625 41001 ft 484 kts 174°
2026-05-08 07:12 41.07228 2.50857 40997 ft 483 kts 174°
2026-05-08 07:13 41.00707 2.53084 40995 ft 485 kts 174°
2026-05-08 07:13 40.94164 2.55316 41001 ft 486 kts 174°
2026-05-08 07:14 40.87603 2.57548 40998 ft 487 kts 174°
2026-05-08 07:14 40.84335 2.58662 40808 ft 481 kts 174°
2026-05-08 07:14 40.81089 2.59765 40004 ft 482 kts 174°
2026-05-08 07:15 40.77842 2.60861 39340 ft 480 kts 174°
2026-05-08 07:15 40.74617 2.61955 38689 ft 477 kts 174°
2026-05-08 07:15 40.71413 2.63043 38021 ft 474 kts 174°
2026-05-08 07:15 40.68229 2.64119 37330 ft 471 kts 175°
2026-05-08 07:16 40.65064 2.65186 36627 ft 468 kts 175°
2026-05-08 07:16 40.61917 2.66247 35911 ft 466 kts 175°
2026-05-08 07:16 40.58777 2.67304 35161 ft 467 kts 175°
2026-05-08 07:16 40.55596 2.68369 34379 ft 477 kts 174°
2026-05-08 07:17 40.52316 2.69476 33553 ft 483 kts 173°
2026-05-08 07:17 40.49128 2.71004 32855 ft 491 kts 163°
2026-05-08 07:17 40.46107 2.73098 32119 ft 490 kts 159°
2026-05-08 07:17 40.43134 2.75250 31357 ft 486 kts 159°
2026-05-08 07:18 40.40167 2.77381 30510 ft 486 kts 158°
2026-05-08 07:18 40.37218 2.79510 29727 ft 482 kts 157°
2026-05-08 07:18 40.34318 2.81640 29004 ft 476 kts 157°
2026-05-08 07:18 40.31435 2.83724 28283 ft 469 kts 158°
2026-05-08 07:19 40.28596 2.85753 27569 ft 463 kts 158°
2026-05-08 07:19 40.25789 2.87772 26883 ft 458 kts 157°
2026-05-08 07:19 40.23017 2.89777 26190 ft 453 kts 157°
2026-05-08 07:19 40.20275 2.91755 25428 ft 447 kts 155°
2026-05-08 07:20 40.17572 2.93709 24725 ft 440 kts 156°
2026-05-08 07:20 40.14913 2.95626 24046 ft 433 kts 156°
2026-05-08 07:20 40.12295 2.97506 23382 ft 426 kts 156°
2026-05-08 07:20 40.09718 2.99347 22698 ft 418 kts 158°
2026-05-08 07:21 40.07053 3.00681 22009 ft 404 kts 171°
2026-05-08 07:21 40.04336 3.01258 21351 ft 390 kts 183°
2026-05-08 07:21 40.01675 3.01128 20683 ft 376 kts 194°
2026-05-08 07:21 39.99233 3.00322 19908 ft 359 kts 208°
2026-05-08 07:22 39.97205 2.98601 19046 ft 342 kts 223°
2026-05-08 07:22 39.95567 2.96452 18185 ft 328 kts 232°
2026-05-08 07:22 39.94114 2.94219 17341 ft 319 kts 231°
2026-05-08 07:22 39.92652 2.92110 16515 ft 310 kts 229°
2026-05-08 07:23 39.91179 2.90094 15709 ft 302 kts 229°
2026-05-08 07:23 39.89750 2.88111 15123 ft 298 kts 230°
2026-05-08 07:23 39.88370 2.86162 14767 ft 287 kts 230°
2026-05-08 07:23 39.87038 2.84283 14468 ft 281 kts 230°
2026-05-08 07:24 39.85675 2.82364 14190 ft 297 kts 229°
2026-05-08 07:24 39.84250 2.80369 13891 ft 302 kts 228°
2026-05-08 07:24 39.83313 2.79064 13683 ft 295 kts 227°
2026-05-08 07:24 39.81450 2.76458 13278 ft 298 kts 228°
2026-05-08 07:25 39.80041 2.74481 12971 ft 298 kts 228°
2026-05-08 07:25 39.78640 2.72524 12653 ft 291 kts 227°
2026-05-08 07:25 39.75876 2.68663 12057 ft 293 kts 227°
2026-05-08 07:26 39.74937 2.67354 11854 ft 292 kts 227°
2026-05-08 07:26 39.73578 2.65460 11558 ft 286 kts 227°
2026-05-08 07:26 39.72225 2.63573 11269 ft 287 kts 227°
2026-05-08 07:26 39.70855 2.61665 10966 ft 288 kts 227°
2026-05-08 07:27 39.69488 2.59763 10657 ft 287 kts 227°
2026-05-08 07:27 39.68132 2.57876 10384 ft 281 kts 227°
2026-05-08 07:27 39.66806 2.56031 10097 ft 280 kts 227°
2026-05-08 07:27 39.65476 2.54182 9813 ft 280 kts 226°
2026-05-08 07:28 39.64142 2.52332 9511 ft 281 kts 226°
2026-05-08 07:28 39.62800 2.50471 9225 ft 282 kts 225°
2026-05-08 07:28 39.61473 2.48633 8947 ft 282 kts 225°
2026-05-08 07:28 39.60107 2.46743 8430 ft 290 kts 225°
2026-05-08 07:29 39.58739 2.44842 7754 ft 287 kts 225°
2026-05-08 07:29 39.57376 2.42978 7091 ft 282 kts 222°
2026-05-08 07:29 39.55732 2.41707 6424 ft 274 kts 195°
2026-05-08 07:29 39.53871 2.41464 5754 ft 268 kts 171°
2026-05-08 07:30 39.52137 2.42239 5043 ft 264 kts 147°
2026-05-08 07:30 39.50662 2.43586 4575 ft 255 kts 143°
2026-05-08 07:30 39.49277 2.44889 4218 ft 237 kts 142°
2026-05-08 07:30 39.47990 2.46105 3838 ft 221 kts 143°
2026-05-08 07:31 39.46785 2.47236 3518 ft 208 kts 143°
2026-05-08 07:31 39.45781 2.48537 3188 ft 203 kts 121°
2026-05-08 07:31 39.45408 2.50228 2911 ft 195 kts 90°
2026-05-08 07:31 39.45758 2.51880 2702 ft 187 kts 71°
2026-05-08 07:32 39.46374 2.53368 2454 ft 185 kts 61°
2026-05-08 07:32 39.47034 2.54784 2263 ft 179 kts 60°
2026-05-08 07:32 39.47685 2.56159 2266 ft 181 kts 60°
2026-05-08 07:32 39.48336 2.57533 2001 ft 180 kts 60°
2026-05-08 07:33 39.48963 2.58861 1882 ft 165 kts 60°
2026-05-08 07:33 39.49555 2.60114 1799 ft 163 kts 60°
2026-05-08 07:33 39.50117 2.61302 1692 ft 143 kts 60°
2026-05-08 07:33 39.50631 2.62392 1573 ft 144 kts 60°
2026-05-08 07:34 39.51149 2.63489 1383 ft 141 kts 59°
2026-05-08 07:34 39.51663 2.64571 1201 ft 141 kts 59°
2026-05-08 07:34 39.52167 2.65653 1016 ft 140 kts 59°
2026-05-08 07:34 39.52671 2.66736 824 ft 140 kts 59°
2026-05-08 07:35 39.53173 2.67806 647 ft 137 kts 58°
2026-05-08 07:35 39.53676 2.68845 464 ft 135 kts 58°
2026-05-08 07:35 39.54168 2.69880 293 ft 135 kts 59°
2026-05-08 07:35 39.54648 2.70927 104 ft 135 kts 59°
2026-05-08 07:36 39.55101 2.71884 35 ft 95 kts 58°
2026-05-08 07:36 39.55344 2.72396 36 ft 49 kts 59°
2026-05-08 07:36 39.55484 2.72688 36 ft 23 kts 58°
2026-05-08 07:36 39.55490 2.72817 36 ft 14 kts 119°
2026-05-08 07:37 39.55429 2.72936 36 ft 13 kts 126°
2026-05-08 07:37 39.55415 2.72968 36 ft 0 kts 112°
2026-05-08 07:37 39.55406 2.72977 36 ft 2 kts 148°
2026-05-08 07:37 39.55374 2.72984 36 ft 9 kts 167°
2026-05-08 07:38 39.55316 2.73019 36 ft 10 kts 151°
2026-05-08 07:38 39.55254 2.73023 36 ft 8 kts 216°
2026-05-08 07:38 39.55212 2.72954 36 ft 11 kts 238°
2026-05-08 07:38 39.55166 2.72858 35 ft 14 kts 238°
2026-05-08 07:39 39.55113 2.72746 36 ft 15 kts 238°
2026-05-08 07:39 39.55075 2.72697 36 ft 2 kts 185°
2026-05-08 07:39 39.55059 2.72706 36 ft 3 kts 152°
2026-05-08 07:39 39.55035 2.72729 36 ft 5 kts 142°
2026-05-08 07:40 39.55026 2.72739 36 ft 0 kts 140°
2026-05-08 07:40 39.55026 2.72740 36 ft 0 kts 140°